Regional Weather Roundup
Issued by NWS Sterling, VA

Home | Current Version | Previous Version | Text Only | Print | Product List | Glossary Off
Versions: 1 2 3 4 5 6 7 8 9 10 11 12 13 14 15 16 17 18 19 20 21 22 23 24 25 26 27

000
ASUS41 KLWX 262110
RWRLWX

REGIONAL WEATHER ROUNDUP
NATIONAL WEATHER SERVICE BALTIMORE MD/WASHINGTON DC
500 PM EDT SUN MAR 26 2017

Note: "FAIR" indicates few or no clouds below 12,000 feet
with no significant weather and/or obstructions to visibility.
 TC=TEMPERATURE CELSIUS

 * =Non NWS site. Station does not report precipitation (e.g. rain,
    snow, etc.), thunder, or fog.

DCZ001-MDZ009-015-VAZ040>042-051-053>054-262200-
WASHINGTON METRO

CITY           SKY/WX    TMP DP  RH WIND       PRES   REMARKS
WASHINGTON NAT CLOUDY    49  46  90 E9        30.27R
DULLES         CLOUDY    48  43  82 E8        30.25F
ANDREWS AFB    CLOUDY    48  44  88 E10       30.24F
FT BELVOIR     CLOUDY    50  45  82 VRB3      30.25F
QUANTICO       CLOUDY    52  48  86 E7        30.25F
COLLEGE PARK*  CLOUDY    46  43  87 E9        30.27R
LEESBURG*      CLOUDY    50  46  87 E8        30.26S
MANASSAS*      CLOUDY    50  45  83 E8        30.25S

$$

MDZ006>007-011-014-262200-
BALTIMORE METRO

CITY           SKY/WX    TMP DP  RH WIND       PRES   REMARKS
BWI AIRPORT    CLOUDY    47  45  93 E16       30.26F
MD SCIENCE CTR   N/A     49  43  80 MISG      30.28F
MARTIN STATE   CLOUDY    48  46  93 E6        30.32
ANNAPOLIS      CLOUDY    48  45  89 E10       30.27F
FORT MEADE*    CLOUDY    46  43  87 E9        30.29F

$$

MDZ012-015-019>023-262200-
MARYLAND EASTERN SHORE

CITY           SKY/WX    TMP DP  RH WIND       PRES   REMARKS
OCEAN CITY     CLOUDY    45  43  93 NE9       30.29F FOG
SALISBURY      CLOUDY    48  46  93 NE10      30.28F FOG
BAY BRIDGE AP* CLOUDY    48  45  87 E9G17     30.27F FOG
CAMBRIDGE*     CLOUDY    48  45  87 E9        30.27F
EASTON*        CLOUDY    48  45  87 E9        30.32F

$$

MDZ017>025-262200-
SOUTHERN MARYLAND

CITY           SKY/WX    TMP DP  RH WIND       PRES   REMARKS
PATUXENT RIVER CLOUDY    52  49  89 E14       30.24F
ST INIGOES     CLOUDY    54  48  80 NE15      30.23F
LEONARDTOWN*   CLOUDY    52  46  82 E8        30.26F

$$

MDZ003>005-262200-
NORTH CENTRAL MARYLAND

CITY           SKY/WX    TMP DP  RH WIND       PRES   REMARKS
FREDERICK*     CLOUDY    48  48 100 E6        30.29S FOG
HAGERSTOWN APT CLOUDY    48  43  82 E9        30.22F
WESTMINSTER*   CLOUDY    45  45 100 E9        30.24S FOG

$$

MDZ501>502-262200-
WESTERN MARYLAND

CITY           SKY/WX    TMP DP  RH WIND       PRES   REMARKS
OAKLAND*       FOG       41  41 100 SE17G23   30.08F VSB 1/2
CUMBERLAND*    CLOUDY    52  45  76 NE3       30.21F

$$

VAZ025>031-262200-
SHENANDOAH VALLEY

CITY           SKY/WX    TMP DP  RH WIND       PRES   REMARKS
WINCHESTER*    CLOUDY    46  43  87 E9        30.20F FOG
FRONT ROYAL*   CLOUDY    52  46  82 E10G16    30.16F
LURAY*         CLOUDY    59  50  72 N8        30.14F
NEW MARKET*    CLOUDY    53  46  77 N10G17    30.14S
STAUNTON*      CLOUDY    60  49  67 S10G17    30.16R
WAYNESBORO*    CLOUDY    56  49  75 E8        30.15S

$$

WVZ021-048>050-054>055-262200-
EASTERN WEST VIRGINIA PANHANDLE

CITY           SKY/WX    TMP DP  RH WIND       PRES   REMARKS
MARTINSBURG    CLOUDY    47  43  86 E7        30.21F
PETERSBURG*    DRIZZLE   54  48  82 N7        30.14S

$$

VAZ036>039-050-262200-
CENTRAL FOOTHILLS

CITY           SKY/WX    TMP DP  RH WIND       PRES   REMARKS
CHARLOTTESVILL PTSUNNY   57  48  72 E12G20    30.18F
CULPEPER*      CLOUDY    53  47  82 E6        30.23F
ORANGE*        CLOUDY    52  46  82 N6        30.22F
GORDONSVILLE*  CLOUDY    54  49  83 NE12      30.19F
WARRENTON*     CLOUDY    52  45  75 E8        30.22F

$$

VAZ055>057-262200-
NORTH AND CENTRAL PIEDMONT

CITY           SKY/WX    TMP DP  RH WIND       PRES   REMARKS
FREDERICKSBRG* CLOUDY    53  48  84 NE5       30.22F
STAFFORD*      CLOUDY    50  48  93 NE7       30.27F

$$

NCZ024-NYZ072-PAZ021-071-VAZ022-071-262200-
OTHER REGIONAL OBSERVATIONS

CITY           SKY/WX    TMP DP  RH WIND       PRES   REMARKS
NEW YORK CITY  CLOUDY    41  33  73 NE6       30.42S
PHILADELPHIA   CLOUDY    44  39  82 E14       30.35F
PITTSBURGH     CLOUDY    63  54  72 SE16      29.99F
ROANOKE        CLOUDY    61  57  87 S8        30.15F
RICHMOND       CLOUDY    68  55  63 E14       30.16F
RALEIGH        PTSUNNY   76  47  35 S12G21    30.13F

$$

ANZ530>537-262200-
MARINE OBSERVATIONS

STATION/POSITION TIME  TEMP    WIND        PRES
                       AIR SEA DIR/SP/G
                 (UTC) (F)     (DEG/KT/KT) (MB)
THOMAS PT LIGHT  2100   46 45   90/ 13/ 14   N/A
BALT KEY BRIDGE  2042   47     100/ 12/ 13 1025.5F
COVE POINT       2042   49     110/ 11/ 13 1025.0F
LEWISETTA        2042   51 50   70/  8/  9 1023.7F
SOLOMONS ISLAND  2042   50 48   70/ 11/ 13   N/A
PINEY POINT      2048          100/ 11/ 13   N/A

$$





USA.gov is the U.S. government's official web portal to all federal, state and local government web resources and services.